Time,TemperatureF,DewpointF,PressureIn,WindDirection,WindDirectionDegrees,WindSpeedMPH,WindSpeedGustMPH,Humidity,HourlyPrecipIn,Conditions,Clouds,dailyrainin,SoftwareType,DateUTC
2013-08-07 00:00:00,58.6,55.1,29.99,SW,215,2.0,7.0,88,0.00,,SKC,0.00,VWS V14.01,2013-08-07 07:00:00,
2013-08-07 00:10:00,58.4,54.9,30.00,West,270,5.0,10.0,88,0.00,,SKC,0.00,VWS V14.01,2013-08-07 07:10:00,
2013-08-07 00:15:00,58.4,54.9,30.00,North,355,0.0,8.0,88,0.00,,SKC,0.00,VWS V14.01,2013-08-07 07:15:00,
2013-08-07 00:20:00,58.3,54.8,30.00,South,181,0.0,8.0,88,0.00,,SKC,0.00,VWS V14.01,2013-08-07 07:20:00,
2013-08-07 00:25:00,58.2,54.7,29.99,WNW,288,0.0,8.0,88,0.00,,SKC,0.00,VWS V14.01,2013-08-07 07:25:00,
2013-08-07 00:30:00,58.2,54.7,30.00,WSW,256,0.0,6.0,88,0.00,,SKC,0.00,VWS V14.01,2013-08-07 07:30:00,
2013-08-07 00:35:00,58.2,54.7,30.00,WSW,254,5.0,6.0,88,0.00,,SKC,0.00,VWS V14.01,2013-08-07 07:35:00,
2013-08-07 00:45:00,58.2,54.4,30.00,SSE,149,4.0,8.0,87,0.00,,SKC,0.00,VWS V14.01,2013-08-07 07:45:00,
2013-08-07 00:50:00,58.3,54.5,30.00,South,174,3.0,8.0,87,0.00,,SKC,0.00,VWS V14.01,2013-08-07 07:50:00,
2013-08-07 00:55:00,58.3,54.5,30.00,SW,234,1.0,10.0,87,0.00,,SKC,0.00,VWS V14.01,2013-08-07 07:55:00,
2013-08-07 01:00:00,58.3,54.5,30.00,South,169,1.0,10.0,87,0.00,,SKC,0.00,VWS V14.01,2013-08-07 08:00:00,
2013-08-07 01:05:00,58.4,54.5,30.00,West,276,2.0,8.0,87,0.00,,SKC,0.00,VWS V14.01,2013-08-07 08:05:00,
2013-08-07 01:15:00,58.4,54.9,30.00,WNW,294,2.0,6.0,88,0.00,,SKC,0.00,VWS V14.01,2013-08-07 08:15:00,
2013-08-07 01:20:00,58.4,54.9,30.00,South,180,6.0,6.0,88,0.00,,SKC,0.00,VWS V14.01,2013-08-07 08:20:00,
2013-08-07 01:25:00,58.4,54.9,30.00,West,263,2.0,6.0,88,0.00,,SKC,0.00,VWS V14.01,2013-08-07 08:25:00,
2013-08-07 01:30:00,58.4,55.2,30.00,South,175,1.0,6.0,89,0.00,,SKC,0.00,VWS V14.01,2013-08-07 08:30:00,
2013-08-07 01:35:00,58.2,55.0,30.00,WNW,299,1.0,8.0,89,0.00,,SKC,0.00,VWS V14.01,2013-08-07 08:35:00,
2013-08-07 01:40:00,58.2,55.0,30.00,SW,226,1.0,6.0,89,0.00,,SKC,0.00,VWS V14.01,2013-08-07 08:40:00,
2013-08-07 01:45:00,58.2,55.3,30.00,WNW,292,0.0,7.0,90,0.00,,SKC,0.00,VWS V14.01,2013-08-07 08:45:00,
2013-08-07 01:50:00,58.1,55.2,30.00,South,183,4.0,6.0,90,0.00,,SKC,0.00,VWS V14.01,2013-08-07 08:50:00,
2013-08-07 02:00:00,57.9,55.3,30.00,South,187,1.0,12.0,91,0.00,,SKC,0.00,VWS V14.01,2013-08-07 09:00:00,
2013-08-07 02:05:00,57.8,55.2,30.00,West,267,0.0,6.0,91,0.00,,SKC,0.00,VWS V14.01,2013-08-07 09:05:00,
2013-08-07 02:10:00,57.8,55.2,30.00,SSE,152,0.0,6.0,91,0.00,,SKC,0.00,VWS V14.01,2013-08-07 09:10:00,
2013-08-07 02:15:00,57.7,55.4,30.00,WSW,248,5.0,5.0,92,0.00,,SKC,0.00,VWS V14.01,2013-08-07 09:15:00,
2013-08-07 02:25:00,57.7,55.4,30.00,South,188,2.0,4.0,92,0.00,,SKC,0.00,VWS V14.01,2013-08-07 09:25:00,
2013-08-07 02:30:00,57.6,55.3,30.00,WNW,287,1.0,6.0,92,0.00,,SKC,0.00,VWS V14.01,2013-08-07 09:30:00,
2013-08-07 02:35:00,57.6,55.3,30.00,West,269,2.0,6.0,92,0.00,,SKC,0.00,VWS V14.01,2013-08-07 09:35:00,
2013-08-07 02:40:00,57.6,55.6,30.00,South,169,1.0,4.0,93,0.00,,SKC,0.00,VWS V14.01,2013-08-07 09:40:00,
2013-08-07 02:45:00,57.6,55.6,30.00,WSW,244,1.0,3.0,93,0.00,,SKC,0.00,VWS V14.01,2013-08-07 09:45:00,
2013-08-07 02:50:00,57.5,55.2,30.00,SSW,199,0.0,5.0,92,0.00,,SKC,0.00,VWS V14.01,2013-08-07 09:50:00,
2013-08-07 02:55:00,57.4,55.4,30.00,South,169,0.0,5.0,93,0.00,,SKC,0.00,VWS V14.01,2013-08-07 09:55:00,
2013-08-07 03:00:00,57.3,55.0,30.00,SSW,204,0.0,6.0,92,0.00,,SKC,0.00,VWS V14.01,2013-08-07 10:00:00,
2013-08-07 03:05:00,57.3,55.0,30.00,WSW,256,5.0,5.0,92,0.00,,SKC,0.00,VWS V14.01,2013-08-07 10:05:00,
2013-08-07 03:10:00,57.2,54.9,30.00,South,183,1.0,7.0,92,0.00,,SKC,0.00,VWS V14.01,2013-08-07 10:10:00,
2013-08-07 03:15:00,57.2,54.9,30.00,WSW,258,3.0,6.0,92,0.00,,SKC,0.00,VWS V14.01,2013-08-07 10:15:00,
2013-08-07 03:20:00,57.2,54.9,30.00,SW,218,0.0,3.0,92,0.00,,SKC,0.00,VWS V14.01,2013-08-07 10:20:00,
2013-08-07 03:25:00,57.2,54.9,30.00,South,188,0.0,5.0,92,0.00,,SKC,0.00,VWS V14.01,2013-08-07 10:25:00,
2013-08-07 03:30:00,57.1,54.5,30.00,South,183,0.0,9.0,91,0.00,,SKC,0.00,VWS V14.01,2013-08-07 10:30:00,
2013-08-07 03:35:00,57.1,54.5,30.00,West,273,2.0,5.0,91,0.00,,SKC,0.00,VWS V14.01,2013-08-07 10:35:00,
2013-08-07 03:40:00,57.1,54.5,30.00,SSW,211,0.0,6.0,91,0.00,,SKC,0.00,VWS V14.01,2013-08-07 10:40:00,
2013-08-07 03:45:00,57.1,54.5,30.00,SSW,209,1.0,4.0,91,0.00,,SKC,0.00,VWS V14.01,2013-08-07 10:45:00,
2013-08-07 03:50:00,57.0,54.7,30.00,West,272,0.0,6.0,92,0.00,,SKC,0.00,VWS V14.01,2013-08-07 10:50:00,
2013-08-07 03:55:00,56.9,54.3,30.00,NNW,336,1.0,8.0,91,0.00,,SKC,0.00,VWS V14.01,2013-08-07 10:55:00,
2013-08-07 04:00:00,56.7,54.1,30.00,SSE,168,1.0,12.0,91,0.00,,SKC,0.00,VWS V14.01,2013-08-07 11:00:00,
2013-08-07 04:05:00,56.7,54.1,30.00,SW,230,0.0,7.0,91,0.00,,SKC,0.00,VWS V14.01,2013-08-07 11:05:00,
2013-08-07 04:10:00,56.6,54.0,30.00,SW,223,0.0,6.0,91,0.00,,SKC,0.00,VWS V14.01,2013-08-07 11:10:00,
2013-08-07 04:15:00,56.6,54.0,30.00,South,185,1.0,6.0,91,0.00,,SKC,0.00,VWS V14.01,2013-08-07 11:15:00,
2013-08-07 04:20:00,56.6,54.0,30.00,WSW,254,0.0,7.0,91,0.00,,SKC,0.00,VWS V14.01,2013-08-07 11:20:00,
2013-08-07 04:25:00,56.6,54.0,30.00,WSW,240,0.0,3.0,91,0.00,,SKC,0.00,VWS V14.01,2013-08-07 11:25:00,
2013-08-07 04:30:00,56.6,54.0,30.00,West,268,0.0,3.0,91,0.00,,SKC,0.00,VWS V14.01,2013-08-07 11:30:00,
2013-08-07 04:35:00,56.6,54.0,30.00,WSW,249,0.0,5.0,91,0.00,,SKC,0.00,VWS V14.01,2013-08-07 11:35:00,
2013-08-07 04:40:00,56.6,53.7,30.00,West,277,8.0,8.0,90,0.00,,SKC,0.00,VWS V14.01,2013-08-07 11:40:00,
2013-08-07 04:45:00,56.5,53.6,30.00,SSW,213,0.0,8.0,90,0.00,,SKC,0.00,VWS V14.01,2013-08-07 11:45:00,
2013-08-07 04:50:00,56.5,53.6,30.01,West,272,2.0,8.0,90,0.00,,SKC,0.00,VWS V14.01,2013-08-07 11:50:00,
2013-08-07 04:55:00,56.4,53.2,30.01,SSW,200,0.0,9.0,89,0.00,,SKC,0.00,VWS V14.01,2013-08-07 11:55:00,
2013-08-07 05:00:00,56.4,53.2,30.01,WNW,298,4.0,6.0,89,0.00,,SKC,0.00,VWS V14.01,2013-08-07 12:00:00,
2013-08-07 05:05:00,56.4,53.2,30.01,WSW,244,7.0,7.0,89,0.00,,SKC,0.00,VWS V14.01,2013-08-07 12:05:00,
2013-08-07 05:10:00,56.4,53.2,30.01,SW,217,2.0,7.0,89,0.00,,SKC,0.00,VWS V14.01,2013-08-07 12:10:00,
2013-08-07 05:15:00,56.4,53.2,30.01,West,269,1.0,6.0,89,0.00,,SKC,0.00,VWS V14.01,2013-08-07 12:15:00,
2013-08-07 05:20:00,56.4,53.2,30.01,SSW,213,4.0,6.0,89,0.00,,SKC,0.00,VWS V14.01,2013-08-07 12:20:00,
2013-08-07 05:25:00,56.4,53.2,30.01,West,280,4.0,5.0,89,0.00,,SKC,0.00,VWS V14.01,2013-08-07 12:25:00,
2013-08-07 05:30:00,56.3,53.1,30.01,SW,221,1.0,6.0,89,0.00,,SKC,0.00,VWS V14.01,2013-08-07 12:30:00,
2013-08-07 05:35:00,56.3,53.1,30.01,SW,220,0.0,3.0,89,0.00,,SKC,0.00,VWS V14.01,2013-08-07 12:35:00,
2013-08-07 05:40:00,56.4,52.9,30.01,SSE,160,0.0,2.0,88,0.00,,SKC,0.00,VWS V14.01,2013-08-07 12:40:00,
2013-08-07 05:45:00,56.3,52.8,30.01,South,173,1.0,4.0,88,0.00,,SKC,0.00,VWS V14.01,2013-08-07 12:45:00,
2013-08-07 05:50:00,56.4,52.9,30.01,West,278,0.0,4.0,88,0.00,,SKC,0.00,VWS V14.01,2013-08-07 12:50:00,
2013-08-07 05:55:00,56.4,52.9,30.01,WNW,285,1.0,2.0,88,0.00,,SKC,0.00,VWS V14.01,2013-08-07 12:55:00,
2013-08-07 06:00:00,56.5,53.0,30.01,SSW,192,1.0,4.0,88,0.00,,SKC,0.00,VWS V14.01,2013-08-07 13:00:00,
2013-08-07 06:05:00,56.5,53.0,30.01,SW,214,0.0,6.0,88,0.00,,SKC,0.00,VWS V14.01,2013-08-07 13:05:00,
2013-08-07 06:10:00,56.6,53.1,30.01,South,182,0.0,4.0,88,0.00,,SKC,0.00,VWS V14.01,2013-08-07 13:10:00,
2013-08-07 06:15:00,56.6,52.8,30.01,West,277,1.0,5.0,87,0.00,,SKC,0.00,VWS V14.01,2013-08-07 13:15:00,
2013-08-07 06:20:00,56.6,52.8,30.01,West,275,0.0,3.0,87,0.00,,SKC,0.00,VWS V14.01,2013-08-07 13:20:00,
2013-08-07 06:25:00,56.6,52.5,30.01,SW,227,0.0,5.0,86,0.00,,SKC,0.00,VWS V14.01,2013-08-07 13:25:00,
2013-08-07 06:30:00,56.6,52.5,30.01,WSW,252,1.0,6.0,86,0.00,,SKC,0.00,VWS V14.01,2013-08-07 13:30:00,
2013-08-07 06:35:00,56.7,52.6,30.01,SSE,168,1.0,6.0,86,0.00,,SKC,0.00,VWS V14.01,2013-08-07 13:35:00,
2013-08-07 06:40:00,56.7,52.6,30.01,SSW,213,1.0,6.0,86,0.00,,SKC,0.00,VWS V14.01,2013-08-07 13:40:00,
2013-08-07 06:45:00,56.7,52.6,30.01,SSW,209,0.0,2.0,86,0.00,,SKC,0.00,VWS V14.01,2013-08-07 13:45:00,
2013-08-07 06:50:00,56.7,52.6,30.02,South,181,0.0,6.0,86,0.00,,SKC,0.00,VWS V14.01,2013-08-07 13:50:00,
2013-08-07 06:55:00,56.8,52.7,30.02,SSE,147,0.0,6.0,86,0.00,,SKC,0.00,VWS V14.01,2013-08-07 13:55:00,
2013-08-07 07:00:00,56.8,52.3,30.01,South,178,1.0,5.0,85,0.00,,SKC,0.00,VWS V14.01,2013-08-07 14:00:00,
2013-08-07 07:05:00,56.9,52.4,30.02,WNW,284,2.0,5.0,85,0.00,,SKC,0.00,VWS V14.01,2013-08-07 14:05:00,
2013-08-07 07:10:00,57.1,52.6,30.02,SSE,163,0.0,5.0,85,0.00,,SKC,0.00,VWS V14.01,2013-08-07 14:10:00,
2013-08-07 07:15:00,57.1,52.6,30.02,West,262,0.0,5.0,85,0.00,,SKC,0.00,VWS V14.01,2013-08-07 14:15:00,
2013-08-07 07:20:00,57.2,52.7,30.02,SSE,164,0.0,5.0,85,0.00,,SKC,0.00,VWS V14.01,2013-08-07 14:20:00,
2013-08-07 07:25:00,57.3,52.8,30.02,South,173,6.0,8.0,85,0.00,,SKC,0.00,VWS V14.01,2013-08-07 14:25:00,
2013-08-07 07:30:00,57.4,52.9,30.02,West,276,3.0,6.0,85,0.00,,SKC,0.00,VWS V14.01,2013-08-07 14:30:00,
2013-08-07 07:35:00,57.5,53.0,30.02,SSW,197,2.0,8.0,85,0.00,,SKC,0.00,VWS V14.01,2013-08-07 14:35:00,
2013-08-07 07:40:00,57.5,52.7,30.02,SSE,158,5.0,7.0,84,0.00,,SKC,0.00,VWS V14.01,2013-08-07 14:40:00,
2013-08-07 07:45:00,57.5,52.7,30.02,West,270,1.0,6.0,84,0.00,,SKC,0.00,VWS V14.01,2013-08-07 14:45:00,
2013-08-07 07:50:00,57.6,52.8,30.03,South,179,2.0,6.0,84,0.00,,SKC,0.00,VWS V14.01,2013-08-07 14:50:00,
2013-08-07 07:55:00,57.7,52.6,30.03,South,175,1.0,6.0,83,0.00,,SKC,0.00,VWS V14.01,2013-08-07 14:55:00,
2013-08-07 08:00:00,57.9,52.8,30.03,SW,233,2.0,7.0,83,0.00,,SKC,0.00,VWS V14.01,2013-08-07 15:00:00,
2013-08-07 08:05:00,58.1,52.6,30.03,West,265,7.0,8.0,82,0.00,,SKC,0.00,VWS V14.01,2013-08-07 15:05:00,
2013-08-07 08:10:00,58.4,52.9,30.03,SSE,163,0.0,8.0,82,0.00,,SKC,0.00,VWS V14.01,2013-08-07 15:10:00,
2013-08-07 08:15:00,58.5,52.7,30.03,South,182,1.0,11.0,81,0.00,,SKC,0.00,VWS V14.01,2013-08-07 15:15:00,
2013-08-07 08:20:00,58.8,53.0,30.03,WNW,292,0.0,8.0,81,0.00,,SKC,0.00,VWS V14.01,2013-08-07 15:20:00,
2013-08-07 08:25:00,59.0,53.2,30.03,West,275,3.0,5.0,81,0.00,,SKC,0.00,VWS V14.01,2013-08-07 15:25:00,
2013-08-07 08:30:00,59.3,53.1,30.03,SSE,157,3.0,9.0,80,0.00,,SKC,0.00,VWS V14.01,2013-08-07 15:30:00,
2013-08-07 08:35:00,59.6,53.4,30.03,SSW,204,5.0,6.0,80,0.00,,SKC,0.00,VWS V14.01,2013-08-07 15:35:00,
2013-08-07 08:40:00,59.9,53.4,30.04,South,185,4.0,6.0,79,0.00,,SKC,0.00,VWS V14.01,2013-08-07 15:40:00,
2013-08-07 08:45:00,60.0,53.1,30.03,WSW,252,2.0,8.0,78,0.00,,SKC,0.00,VWS V14.01,2013-08-07 15:45:00,
2013-08-07 08:50:00,60.2,53.7,30.04,SSW,205,4.0,9.0,79,0.00,,SKC,0.00,VWS V14.01,2013-08-07 15:50:00,
2013-08-07 08:55:00,60.6,53.7,30.04,South,175,4.0,7.0,78,0.00,,SKC,0.00,VWS V14.01,2013-08-07 15:55:00,
2013-08-07 09:00:00,60.8,53.5,30.04,SSE,165,4.0,7.0,77,0.00,,SKC,0.00,VWS V14.01,2013-08-07 16:00:00,
2013-08-07 09:05:00,60.9,53.3,30.04,SW,214,4.0,10.0,76,0.00,,SKC,0.00,VWS V14.01,2013-08-07 16:05:00,
2013-08-07 09:10:00,61.1,53.5,30.04,SSW,200,4.0,7.0,76,0.00,,SKC,0.00,VWS V14.01,2013-08-07 16:10:00,
2013-08-07 09:15:00,61.5,53.5,30.04,South,180,2.0,8.0,75,0.00,,SKC,0.00,VWS V14.01,2013-08-07 16:15:00,
2013-08-07 09:20:00,61.6,53.6,30.04,SSE,164,2.0,7.0,75,0.00,,SKC,0.00,VWS V14.01,2013-08-07 16:20:00,
2013-08-07 09:25:00,61.7,53.7,30.05,South,170,3.0,11.0,75,0.00,,SKC,0.00,VWS V14.01,2013-08-07 16:25:00,
2013-08-07 09:30:00,62.0,54.0,30.05,South,169,1.0,7.0,75,0.00,,SKC,0.00,VWS V14.01,2013-08-07 16:30:00,
2013-08-07 09:35:00,62.6,54.2,30.05,SW,227,7.0,8.0,74,0.00,,SKC,0.00,VWS V14.01,2013-08-07 16:35:00,
2013-08-07 09:40:00,62.7,53.9,30.05,NNW,327,2.0,11.0,73,0.00,,SKC,0.00,VWS V14.01,2013-08-07 16:40:00,
2013-08-07 09:45:00,62.7,54.3,30.05,WSW,248,4.0,7.0,74,0.00,,SKC,0.00,VWS V14.01,2013-08-07 16:45:00,
2013-08-07 09:50:00,63.2,54.0,30.05,SSW,193,2.0,10.0,72,0.00,,SKC,0.00,VWS V14.01,2013-08-07 16:50:00,
2013-08-07 10:00:00,63.9,54.3,30.05,WSW,245,1.0,8.0,71,0.00,,SKC,0.00,VWS V14.01,2013-08-07 17:00:00,
2013-08-07 10:05:00,63.6,54.4,30.06,South,174,1.0,10.0,72,0.00,,SKC,0.00,VWS V14.01,2013-08-07 17:05:00,
2013-08-07 10:10:00,64.8,55.6,30.05,North,5,1.0,7.0,72,0.00,,SKC,0.00,VWS V14.01,2013-08-07 17:10:00,
2013-08-07 10:15:00,65.8,55.8,30.06,SSW,207,0.0,12.0,70,0.00,,SKC,0.00,VWS V14.01,2013-08-07 17:15:00,
2013-08-07 10:20:00,65.9,55.5,30.06,South,180,4.0,9.0,69,0.00,,SKC,0.00,VWS V14.01,2013-08-07 17:20:00,
2013-08-07 10:25:00,65.1,55.1,30.06,South,178,4.0,7.0,70,0.00,,SKC,0.00,VWS V14.01,2013-08-07 17:25:00,
2013-08-07 10:30:00,63.9,54.7,30.06,South,190,0.0,10.0,72,0.00,,SKC,0.00,VWS V14.01,2013-08-07 17:30:00,
2013-08-07 10:35:00,63.0,55.0,30.06,South,181,4.0,8.0,75,0.00,,SKC,0.00,VWS V14.01,2013-08-07 17:35:00,
2013-08-07 10:40:00,62.9,55.2,30.06,WSW,245,2.0,5.0,76,0.00,,SKC,0.00,VWS V14.01,2013-08-07 17:40:00,
2013-08-07 10:45:00,63.2,55.2,30.06,SSE,156,1.0,7.0,75,0.00,,SKC,0.00,VWS V14.01,2013-08-07 17:45:00,
2013-08-07 10:55:00,63.4,55.0,30.06,South,171,3.0,7.0,74,0.00,,SKC,0.00,VWS V14.01,2013-08-07 17:55:00,
2013-08-07 11:00:00,63.9,55.1,30.06,NW,325,1.0,6.0,73,0.00,,SKC,0.00,VWS V14.01,2013-08-07 18:00:00,
2013-08-07 11:05:00,64.5,54.9,30.06,SSE,164,3.0,7.0,71,0.00,,SKC,0.00,VWS V14.01,2013-08-07 18:05:00,
2013-08-07 11:10:00,65.2,55.2,30.06,SSE,163,0.0,6.0,70,0.00,,SKC,0.00,VWS V14.01,2013-08-07 18:10:00,
2013-08-07 11:15:00,65.8,55.4,30.06,WSW,246,3.0,8.0,69,0.00,,SKC,0.00,VWS V14.01,2013-08-07 18:15:00,
2013-08-07 11:20:00,66.1,55.2,30.06,WNW,300,3.0,8.0,68,0.00,,SKC,0.00,VWS V14.01,2013-08-07 18:20:00,
2013-08-07 11:25:00,66.6,55.3,30.06,West,281,5.0,6.0,67,0.00,,SKC,0.00,VWS V14.01,2013-08-07 18:25:00,
2013-08-07 11:30:00,66.9,55.2,30.06,South,188,1.0,8.0,66,0.00,,SKC,0.00,VWS V14.01,2013-08-07 18:30:00,
2013-08-07 11:35:00,66.8,55.5,30.06,WNW,286,6.0,9.0,67,0.00,,SKC,0.00,VWS V14.01,2013-08-07 18:35:00,
2013-08-07 11:45:00,68.2,55.6,30.06,WSW,254,6.0,8.0,64,0.00,,SKC,0.00,VWS V14.01,2013-08-07 18:45:00,
2013-08-07 11:50:00,68.4,56.2,30.06,South,176,2.0,11.0,65,0.00,,SKC,0.00,VWS V14.01,2013-08-07 18:50:00,
2013-08-07 11:55:00,68.7,56.0,30.05,South,184,4.0,9.0,64,0.00,,SKC,0.00,VWS V14.01,2013-08-07 18:55:00,
2013-08-07 12:05:00,69.0,56.3,30.05,SW,223,2.0,8.0,64,0.00,,SKC,0.00,VWS V14.01,2013-08-07 19:05:00,
2013-08-07 12:15:00,69.4,56.3,30.05,South,180,5.0,9.0,63,0.00,,SKC,0.00,VWS V14.01,2013-08-07 19:15:00,
2013-08-07 12:20:00,69.5,56.4,30.05,South,175,0.0,9.0,63,0.00,,SKC,0.00,VWS V14.01,2013-08-07 19:20:00,
2013-08-07 12:25:00,70.1,56.5,30.05,SW,222,6.0,7.0,62,0.00,,SKC,0.00,VWS V14.01,2013-08-07 19:25:00,
2013-08-07 12:30:00,70.2,56.6,30.05,SSW,207,3.0,7.0,62,0.00,,SKC,0.00,VWS V14.01,2013-08-07 19:30:00,
2013-08-07 12:40:00,70.1,56.5,30.05,South,187,2.0,7.0,62,0.00,,SKC,0.00,VWS V14.01,2013-08-07 19:40:00,
2013-08-07 12:45:00,70.0,56.4,30.05,South,176,1.0,10.0,62,0.00,,SKC,0.00,VWS V14.01,2013-08-07 19:45:00,
2013-08-07 12:55:00,69.7,56.6,30.04,SW,221,2.0,8.0,63,0.00,,SKC,0.00,VWS V14.01,2013-08-07 19:55:00,
2013-08-07 13:00:00,70.3,56.7,30.04,SSW,203,7.0,10.0,62,0.00,,SKC,0.00,VWS V14.01,2013-08-07 20:00:00,
2013-08-07 13:05:00,70.1,56.5,30.04,SSW,200,6.0,10.0,62,0.00,,SKC,0.00,VWS V14.01,2013-08-07 20:05:00,
2013-08-07 13:10:00,69.8,56.7,30.04,SSE,167,2.0,8.0,63,0.00,,SKC,0.00,VWS V14.01,2013-08-07 20:10:00,
2013-08-07 13:15:00,70.1,56.9,30.04,WSW,254,6.0,9.0,63,0.00,,SKC,0.00,VWS V14.01,2013-08-07 20:15:00,
2013-08-07 13:20:00,70.3,57.1,30.04,SSE,153,4.0,8.0,63,0.00,,SKC,0.00,VWS V14.01,2013-08-07 20:20:00,
2013-08-07 13:25:00,70.4,56.8,30.04,South,178,4.0,7.0,62,0.00,,SKC,0.00,VWS V14.01,2013-08-07 20:25:00,
2013-08-07 13:30:00,70.4,56.8,30.04,SW,230,5.0,8.0,62,0.00,,SKC,0.00,VWS V14.01,2013-08-07 20:30:00,
2013-08-07 13:35:00,71.1,57.4,30.04,South,184,3.0,6.0,62,0.00,,SKC,0.00,VWS V14.01,2013-08-07 20:35:00,
2013-08-07 13:40:00,71.3,57.2,30.04,SSE,165,5.0,10.0,61,0.00,,SKC,0.00,VWS V14.01,2013-08-07 20:40:00,
2013-08-07 13:45:00,70.7,57.1,30.04,WSW,251,0.0,8.0,62,0.00,,SKC,0.00,VWS V14.01,2013-08-07 20:45:00,
2013-08-07 13:55:00,71.4,57.3,30.04,SSE,163,4.0,6.0,61,0.00,,SKC,0.00,VWS V14.01,2013-08-07 20:55:00,
2013-08-07 14:00:00,71.5,57.4,30.04,West,279,4.0,10.0,61,0.00,,SKC,0.00,VWS V14.01,2013-08-07 21:00:00,
2013-08-07 14:05:00,71.6,57.5,30.04,South,183,1.0,7.0,61,0.00,,SKC,0.00,VWS V14.01,2013-08-07 21:05:00,
2013-08-07 14:15:00,71.0,57.3,30.04,SSE,165,1.0,5.0,62,0.00,,SKC,0.00,VWS V14.01,2013-08-07 21:15:00,
2013-08-07 14:20:00,71.3,57.6,30.04,South,171,5.0,8.0,62,0.00,,SKC,0.00,VWS V14.01,2013-08-07 21:20:00,
2013-08-07 14:25:00,71.3,57.6,30.04,West,269,0.0,12.0,62,0.00,,SKC,0.00,VWS V14.01,2013-08-07 21:25:00,
2013-08-07 14:30:00,71.4,58.2,30.03,WSW,249,7.0,10.0,63,0.00,,SKC,0.00,VWS V14.01,2013-08-07 21:30:00,
2013-08-07 14:35:00,71.9,57.7,30.03,WSW,252,1.0,7.0,61,0.00,,SKC,0.00,VWS V14.01,2013-08-07 21:35:00,
2013-08-07 14:45:00,72.3,58.1,30.03,SSW,200,0.0,9.0,61,0.00,,SKC,0.00,VWS V14.01,2013-08-07 21:45:00,
2013-08-07 14:50:00,72.4,57.8,30.03,SW,220,0.0,10.0,60,0.00,,SKC,0.00,VWS V14.01,2013-08-07 21:50:00,
2013-08-07 14:55:00,72.3,57.7,30.03,West,269,0.0,7.0,60,0.00,,SKC,0.00,VWS V14.01,2013-08-07 21:55:00,
2013-08-07 15:10:00,72.4,58.2,30.02,SW,227,1.0,9.0,61,0.00,,SKC,0.00,VWS V14.01,2013-08-07 22:10:00,
2013-08-07 15:20:00,72.9,57.8,30.02,NW,306,6.0,8.0,59,0.00,,SKC,0.00,VWS V14.01,2013-08-07 22:20:00,
2013-08-07 15:25:00,72.5,57.8,30.01,NW,309,1.0,9.0,60,0.00,,SKC,0.00,VWS V14.01,2013-08-07 22:25:00,
2013-08-07 15:30:00,72.7,58.0,30.02,West,268,7.0,12.0,60,0.00,,SKC,0.00,VWS V14.01,2013-08-07 22:30:00,
2013-08-07 15:35:00,72.4,57.8,30.02,West,271,1.0,9.0,60,0.00,,SKC,0.00,VWS V14.01,2013-08-07 22:35:00,
2013-08-07 15:45:00,72.4,57.8,30.01,SSW,198,2.0,6.0,60,0.00,,SKC,0.00,VWS V14.01,2013-08-07 22:45:00,
2013-08-07 15:55:00,72.8,57.7,30.01,West,265,2.0,8.0,59,0.00,,SKC,0.00,VWS V14.01,2013-08-07 22:55:00,
2013-08-07 16:00:00,72.7,58.0,30.00,SSE,148,1.0,8.0,60,0.00,,SKC,0.00,VWS V14.01,2013-08-07 23:00:00,
2013-08-07 16:05:00,72.8,57.7,30.01,SSE,160,2.0,9.0,59,0.00,,SKC,0.00,VWS V14.01,2013-08-07 23:05:00,
2013-08-07 16:10:00,72.5,57.4,30.01,SSE,166,6.0,7.0,59,0.00,,SKC,0.00,VWS V14.01,2013-08-07 23:10:00,
2013-08-07 16:20:00,71.8,57.2,30.01,WSW,238,2.0,7.0,60,0.00,,SKC,0.00,VWS V14.01,2013-08-07 23:20:00,
2013-08-07 16:25:00,71.9,57.3,30.01,South,184,0.0,8.0,60,0.00,,SKC,0.00,VWS V14.01,2013-08-07 23:25:00,
2013-08-07 16:30:00,71.6,57.0,30.01,SE,134,6.0,7.0,60,0.00,,SKC,0.00,VWS V14.01,2013-08-07 23:30:00,
2013-08-07 16:35:00,71.3,57.2,30.01,WSW,248,2.0,9.0,61,0.00,,SKC,0.00,VWS V14.01,2013-08-07 23:35:00,
2013-08-07 16:45:00,71.9,57.3,30.01,West,267,1.0,8.0,60,0.00,,SKC,0.00,VWS V14.01,2013-08-07 23:45:00,
2013-08-07 16:50:00,72.3,57.2,30.01,SSE,165,4.0,7.0,59,0.00,,SKC,0.00,VWS V14.01,2013-08-07 23:50:00,
2013-08-07 16:55:00,71.9,57.3,30.01,South,181,6.0,9.0,60,0.00,,SKC,0.00,VWS V14.01,2013-08-07 23:55:00,
2013-08-07 17:05:00,71.4,57.3,30.01,SW,225,1.0,8.0,61,0.00,,SKC,0.00,VWS V14.01,2013-08-08 00:05:00,
2013-08-07 17:10:00,71.7,57.1,30.00,West,272,1.0,7.0,60,0.00,,SKC,0.00,VWS V14.01,2013-08-08 00:10:00,
2013-08-07 17:20:00,71.3,57.2,30.00,WSW,247,7.0,8.0,61,0.00,,SKC,0.00,VWS V14.01,2013-08-08 00:20:00,
2013-08-07 17:30:00,71.5,57.4,30.00,West,261,0.0,5.0,61,0.00,,SKC,0.00,VWS V14.01,2013-08-08 00:30:00,
2013-08-07 17:35:00,70.8,57.2,30.01,SSE,164,4.0,8.0,62,0.00,,SKC,0.00,VWS V14.01,2013-08-08 00:35:00,
2013-08-07 17:45:00,69.5,56.8,30.00,WSW,242,0.0,8.0,64,0.00,,SKC,0.00,VWS V14.01,2013-08-08 00:45:00,
2013-08-07 17:55:00,70.0,57.3,30.00,SSW,199,1.0,9.0,64,0.00,,SKC,0.00,VWS V14.01,2013-08-08 00:55:00,
2013-08-07 18:00:00,70.1,56.9,30.00,North,360,2.0,10.0,63,0.00,,SKC,0.00,VWS V14.01,2013-08-08 01:00:00,
2013-08-07 18:05:00,69.4,56.7,30.00,WSW,256,1.0,9.0,64,0.00,,SKC,0.00,VWS V14.01,2013-08-08 01:05:00,
2013-08-07 18:10:00,69.0,57.2,29.99,West,277,3.0,9.0,66,0.00,,SKC,0.00,VWS V14.01,2013-08-08 01:10:00,
2013-08-07 18:15:00,68.6,56.8,29.99,NNE,33,3.0,10.0,66,0.00,,SKC,0.00,VWS V14.01,2013-08-08 01:15:00,
2013-08-07 18:20:00,68.3,56.9,30.00,WNW,286,4.0,9.0,67,0.00,,SKC,0.00,VWS V14.01,2013-08-08 01:20:00,
2013-08-07 18:25:00,68.2,56.8,30.00,WNW,295,0.0,8.0,67,0.00,,SKC,0.00,VWS V14.01,2013-08-08 01:25:00,
2013-08-07 18:30:00,68.0,57.1,30.00,NW,315,0.0,8.0,68,0.00,,SKC,0.00,VWS V14.01,2013-08-08 01:30:00,
2013-08-07 18:40:00,67.4,56.9,30.00,WSW,242,0.0,7.0,69,0.00,,SKC,0.00,VWS V14.01,2013-08-08 01:40:00,
2013-08-07 18:45:00,67.1,56.6,30.00,SW,229,0.0,6.0,69,0.00,,SKC,0.00,VWS V14.01,2013-08-08 01:45:00,
2013-08-07 18:55:00,66.1,56.0,30.00,SE,133,0.0,4.0,70,0.00,,SKC,0.00,VWS V14.01,2013-08-08 01:55:00,
2013-08-07 19:00:00,65.8,56.2,30.00,SW,217,0.0,8.0,71,0.00,,SKC,0.00,VWS V14.01,2013-08-08 02:00:00,
2013-08-07 19:10:00,65.2,55.6,30.00,NNW,334,0.0,7.0,71,0.00,,SKC,0.00,VWS V14.01,2013-08-08 02:10:00,
2013-08-07 19:15:00,65.0,55.8,30.00,SSE,168,1.0,6.0,72,0.00,,SKC,0.00,VWS V14.01,2013-08-08 02:15:00,
2013-08-07 19:20:00,64.8,56.0,30.00,West,267,3.0,6.0,73,0.00,,SKC,0.00,VWS V14.01,2013-08-08 02:20:00,
2013-08-07 19:25:00,64.3,55.5,30.00,South,187,5.0,8.0,73,0.00,,SKC,0.00,VWS V14.01,2013-08-08 02:25:00,
2013-08-07 19:30:00,64.0,55.6,30.00,WSW,246,1.0,6.0,74,0.00,,SKC,0.00,VWS V14.01,2013-08-08 02:30:00,
2013-08-07 19:35:00,63.6,55.5,30.00,West,268,7.0,11.0,75,0.00,,SKC,0.00,VWS V14.01,2013-08-08 02:35:00,
2013-08-07 19:40:00,63.3,55.2,30.00,South,190,2.0,8.0,75,0.00,,SKC,0.00,VWS V14.01,2013-08-08 02:40:00,
2013-08-07 19:45:00,62.9,55.2,30.00,SW,223,6.0,7.0,76,0.00,,SKC,0.00,VWS V14.01,2013-08-08 02:45:00,
2013-08-07 19:55:00,62.3,55.4,30.00,South,178,1.0,5.0,78,0.00,,SKC,0.00,VWS V14.01,2013-08-08 02:55:00,
2013-08-07 20:00:00,62.1,55.2,30.00,West,267,4.0,5.0,78,0.00,,SKC,0.00,VWS V14.01,2013-08-08 03:00:00,
2013-08-07 20:10:00,61.7,55.1,30.00,WSW,248,0.0,6.0,79,0.00,,SKC,0.00,VWS V14.01,2013-08-08 03:10:00,
2013-08-07 20:15:00,61.4,55.2,30.00,SSE,152,0.0,5.0,80,0.00,,SKC,0.00,VWS V14.01,2013-08-08 03:15:00,
2013-08-07 20:25:00,61.0,55.1,30.00,WSW,256,0.0,4.0,81,0.00,,SKC,0.00,VWS V14.01,2013-08-08 03:25:00,
2013-08-07 20:30:00,60.8,54.9,30.00,South,169,2.0,6.0,81,0.00,,SKC,0.00,VWS V14.01,2013-08-08 03:30:00,
2013-08-07 20:35:00,60.6,54.8,30.00,South,185,0.0,5.0,81,0.00,,SKC,0.00,VWS V14.01,2013-08-08 03:35:00,
2013-08-07 20:45:00,60.3,54.8,30.00,SW,235,7.0,7.0,82,0.00,,SKC,0.00,VWS V14.01,2013-08-08 03:45:00,
2013-08-07 20:55:00,59.9,54.7,30.00,South,190,5.0,5.0,83,0.00,,SKC,0.00,VWS V14.01,2013-08-08 03:55:00,
2013-08-07 21:05:00,59.6,54.8,30.00,WSW,250,1.0,6.0,84,0.00,,SKC,0.00,VWS V14.01,2013-08-08 04:05:00,
2013-08-07 21:10:00,59.5,55.0,30.00,SW,219,2.0,5.0,85,0.00,,SKC,0.00,VWS V14.01,2013-08-08 04:10:00,
2013-08-07 21:20:00,59.4,54.9,30.00,WSW,242,0.0,7.0,85,0.00,,SKC,0.00,VWS V14.01,2013-08-08 04:20:00,
2013-08-07 21:25:00,59.3,54.8,30.00,WSW,258,0.0,6.0,85,0.00,,SKC,0.00,VWS V14.01,2013-08-08 04:25:00,
2013-08-07 21:30:00,59.2,54.7,30.00,SW,230,3.0,4.0,85,0.00,,SKC,0.00,VWS V14.01,2013-08-08 04:30:00,
2013-08-07 21:40:00,59.0,54.8,30.00,West,280,3.0,7.0,86,0.00,,SKC,0.00,VWS V14.01,2013-08-08 04:40:00,
2013-08-07 21:50:00,59.0,54.8,30.00,SW,225,2.0,7.0,86,0.00,,SKC,0.00,VWS V14.01,2013-08-08 04:50:00,
2013-08-07 22:00:00,59.0,55.1,30.00,SW,227,0.0,7.0,87,0.00,,SKC,0.00,VWS V14.01,2013-08-08 05:00:00,
2013-08-07 22:05:00,59.0,55.1,30.00,WNW,295,1.0,6.0,87,0.00,,SKC,0.00,VWS V14.01,2013-08-08 05:05:00,
2013-08-07 22:15:00,59.0,55.1,30.00,SW,218,1.0,6.0,87,0.00,,SKC,0.00,VWS V14.01,2013-08-08 05:15:00,
2013-08-07 22:20:00,59.0,55.1,30.00,WNW,294,0.0,4.0,87,0.00,,SKC,0.00,VWS V14.01,2013-08-08 05:20:00,
2013-08-07 22:25:00,59.0,55.1,30.00,WSW,254,0.0,2.0,87,0.00,,SKC,0.00,VWS V14.01,2013-08-08 05:25:00,
2013-08-07 22:30:00,59.0,55.1,30.00,NW,310,5.0,6.0,87,0.00,,SKC,0.00,VWS V14.01,2013-08-08 05:30:00,
2013-08-07 22:35:00,59.0,55.5,30.00,SW,236,0.0,6.0,88,0.00,,SKC,0.00,VWS V14.01,2013-08-08 05:35:00,
2013-08-07 22:45:00,58.8,55.3,30.00,South,169,2.0,7.0,88,0.00,,SKC,0.00,VWS V14.01,2013-08-08 05:45:00,
2013-08-07 22:50:00,58.7,55.2,30.00,West,272,0.0,4.0,88,0.00,,SKC,0.00,VWS V14.01,2013-08-08 05:50:00,
2013-08-07 22:55:00,58.7,55.2,30.00,SSE,156,0.0,3.0,88,0.00,,SKC,0.00,VWS V14.01,2013-08-08 05:55:00,
2013-08-07 23:05:00,58.8,55.6,29.99,WSW,244,3.0,7.0,89,0.00,,SKC,0.00,VWS V14.01,2013-08-08 06:05:00,
2013-08-07 23:15:00,58.8,55.6,29.99,WNW,283,0.0,5.0,89,0.00,,SKC,0.00,VWS V14.01,2013-08-08 06:15:00,
2013-08-07 23:20:00,58.9,55.7,29.99,West,271,0.0,6.0,89,0.00,,SKC,0.00,VWS V14.01,2013-08-08 06:20:00,
2013-08-07 23:25:00,59.0,55.8,29.99,West,281,0.0,4.0,89,0.00,,SKC,0.00,VWS V14.01,2013-08-08 06:25:00,
2013-08-07 23:30:00,59.0,55.5,29.99,WSW,240,0.0,5.0,88,0.00,,SKC,0.00,VWS V14.01,2013-08-08 06:30:00,
2013-08-07 23:35:00,59.0,55.8,29.99,WNW,292,4.0,7.0,89,0.00,,SKC,0.00,VWS V14.01,2013-08-08 06:35:00,
2013-08-07 23:40:00,59.0,55.5,29.99,West,264,1.0,5.0,88,0.00,,SKC,0.00,VWS V14.01,2013-08-08 06:40:00,
2013-08-07 23:45:00,59.0,55.8,29.99,SW,236,0.0,5.0,89,0.00,,SKC,0.00,VWS V14.01,2013-08-08 06:45:00,
2013-08-07 23:55:00,59.0,55.8,30.00,NW,304,4.0,5.0,89,0.00,,SKC,0.00,VWS V14.01,2013-08-08 06:55:00,